x

Conneaut Breakwater Light, Oh (cblo1) Weather Station

11:23pm - Sat 24th Sep 2016 All times are CDT. -5 hours from GMT.

  • Wind
    11mph, 14mph gusts
  • Air Temp 56°f
  • Sea Pressure 1023.4mb
  • Conneaut Breakwater Light, Oh
  • Conneaut Breakwater Light, Oh

More Historic Weather Station data

Upgrade to MSW Pro to gain access to the past 30 days of data for over 8000 Wavebouys and Weather Stations around the globe.

Join Pro

Comparision Forecast

View Surf forecast
   
Sat 09/24 11:23pm 11 14 mph 1023.4mb 56f
11:00pm 10 14 mph 1023.4mb 56f
10:50pm 11 14 mph 1023mb 56f
10:40pm 11 14 mph 1023mb 57f
10:30pm 11 15 mph 1023mb 57f
10:23pm 11 15 mph 1023mb 56f
10:20pm 11 14 mph 1023mb 56f
10:10pm 9 13 mph 1023mb 57f
10:00pm 10 11 mph 1023mb 57f
9:50pm 10 14 mph 1023mb 57f
9:40pm 10 13 mph 1023mb 58f
9:30pm 9 11 mph 1023mb 57f
9:22pm 8 13 mph 1023.4mb 58f
9:20pm 8 11 mph 1023.4mb 58f
9:10pm 10 13 mph 1023.4mb 58f
9:00pm 10 13 mph 1023.4mb 57f
8:50pm 10 13 mph 1023mb 59f
8:40pm 9 13 mph 1023.4mb 59f
8:30pm 8 13 mph 1023mb 58f
8:22pm 10 23 mph 1023mb 60f
8:20pm 10 13 mph 1023mb 60f
8:10pm 10 18 mph 1023mb 61f
8:00pm 14 22 mph 1023mb 63f
7:50pm 18 23 mph 1023.4mb 64f
7:40pm 17 22 mph 1023mb 64f
7:30pm 18 22 mph 1023mb 64f
7:22pm 20 23 mph 1023mb 64f
7:20pm 17 21 mph 1023mb 64f
7:10pm 17 23 mph 1023mb 64f
7:00pm 18 21 mph 1023mb 63f
6:50pm 17 22 mph 1022.7mb 63f
6:40pm 18 22 mph 1022.7mb 63f
6:30pm 16 23 mph 1023mb 63f
6:21pm 16 22 mph 1022.7mb 63f
6:20pm 16 21 mph 1022.7mb 63f
6:10pm 14 21 mph 1022.7mb 63f
6:00pm 17 20 mph 1023mb 64f
5:50pm 15 20 mph 1023mb 64f
5:40pm 15 22 mph 1023mb 64f
5:30pm 14 20 mph 1023mb 64f
5:21pm 15 21 mph 1023mb 64f
5:20pm 15 20 mph 1023mb 64f
5:10pm 14 21 mph 1023mb 64f
5:00pm 17 20 mph 1023mb 64f
4:50pm 16 21 mph 1023mb 64f
4:40pm 16 20 mph 1023mb 64f
4:30pm 15 20 mph 1023mb 64f
4:20pm 16 20 mph 1023mb 64f
4:10pm 17 20 mph 1023mb 64f
4:00pm 16 20 mph 1023mb 64f
3:50pm 14 20 mph 1023mb 64f
3:40pm 16 18 mph 1023mb 63f
3:30pm 13 20 mph 1023mb 63f
3:20pm 14 21 mph 1023mb 63f
3:10pm 15 21 mph 1023mb 63f
3:00pm 13 20 mph 1023.4mb 63f
2:50pm 17 21 mph 1023.4mb 63f
2:40pm 16 21 mph 1023.4mb 63f
2:30pm 16 20 mph 1023.4mb 63f
2:20pm 16 26 mph 1023.4mb 63f
2:10pm 17 23 mph 1023.4mb 63f
2:00pm 18 22 mph 1023.4mb 63f
1:50pm 17 21 mph 1023.4mb 63f
1:40pm 18 23 mph 1023.4mb 63f
1:30pm 18 23 mph 1023.4mb 63f
1:20pm 21 25 mph 1023.4mb 63f
1:10pm 18 24 mph 1023.4mb 63f
1:00pm 20 25 mph 1023.7mb 63f
12:50pm 21 26 mph 1023.7mb 63f
12:40pm 22 26 mph 1024mb 63f
12:39pm 22 28 mph 1023.7mb 63f
12:30pm 21 25 mph 1024mb 63f
12:20pm 21 26 mph 1024mb 63f
12:10pm 23 28 mph 1024mb 63f
12:00pm 22 26 mph 1024.4mb 63f
11:50am 22 26 mph 1024.4mb 63f
11:40am 22 26 mph 1024.4mb 63f
11:39am 18 26 mph 1024.4mb 63f
11:30am 17 23 mph 1024mb 63f
11:20am 20 25 mph 1024.4mb 63f
11:10am 20 24 mph 1024.4mb 63f
11:00am 21 25 mph 1024mb 63f
10:50am 18 23 mph 1024.4mb 63f
10:40am 18 23 mph 1024.4mb 63f
10:38am 20 25 mph 1024.4mb 63f
10:30am 18 23 mph 1024.4mb 63f
10:20am 21 25 mph 1024.4mb 63f
10:10am 20 24 mph 1024mb 63f
10:00am 17 23 mph 1023.7mb 63f
9:50am 18 23 mph 1023.7mb 63f
9:40am 20 23 mph 1023.7mb 63f
9:38am 17 26 mph 1023.7mb 63f
9:30am 21 26 mph 1023.7mb 64f
9:20am 17 21 mph 1023.7mb 63f
9:10am 18 22 mph 1023.7mb 63f
9:00am 18 23 mph 1023.7mb 63f
8:50am 16 21 mph 1023.7mb 62f
8:40am 18 22 mph 1023.7mb 62f
8:38am 17 24 mph 1023.7mb 62f
8:30am 17 24 mph 1023.7mb 62f
8:20am 17 20 mph 1023.7mb 63f
8:10am 16 18 mph 1023.7mb 62f
8:00am 15 22 mph 1023.4mb 62f
7:50am 15 20 mph 1023.4mb 62f
7:40am 14 17 mph 1023.4mb 61f
7:37am 14 20 mph 1023.4mb 61f
7:30am 13 16 mph 1023mb 61f
7:20am 14 18 mph 1023mb 60f
7:10am 14 17 mph 1023mb 60f
7:00am 15 20 mph 1023mb 61f
6:50am 16 18 mph 1022.7mb 61f
6:40am 15 18 mph 1022.4mb 60f
6:37am 15 22 mph 1022.4mb 61f
6:30am 14 21 mph 1022.4mb 61f
6:20am 16 20 mph 1022mb 61f
6:10am 16 20 mph 1022mb 61f
6:00am 17 22 mph 1022mb 61f
5:50am 16 21 mph 1022mb 61f
5:40am 15 20 mph 1021.7mb 62f
5:36am 17 23 mph 1021.7mb 62f
5:30am 17 21 mph 1021.7mb 62f
5:20am 15 17 mph 1021.3mb 62f
5:10am 13 17 mph 1021.3mb 62f
5:00am 11 22 mph 1021.3mb 63f
4:50am 17 22 mph 1021.3mb 64f
4:40am 20 23 mph 1021.3mb 64f
4:36am 16 22 mph 1021.3mb 64f
4:30am 15 20 mph 1021mb 64f
4:20am 17 22 mph 1021mb 63f
4:10am 16 20 mph 1021mb 64f
4:00am 13 17 mph 1020.7mb 64f
3:50am 9 15 mph 1020.3mb 62f
3:40am 8 13 mph 1020.3mb 63f
3:30am 7 13 mph 1020.3mb 62f
3:20am 9 13 mph 1020.3mb 62f
3:10am 10 15 mph 1020.3mb 62f
3:00am 9 15 mph 1020.7mb 62f
2:50am 13 15 mph 1020.3mb 63f
2:40am 13 14 mph 1020.7mb 63f
2:30am 10 14 mph 1020.7mb 64f
2:20am 11 16 mph 1020.7mb 64f
2:10am 15 17 mph 1020.7mb 64f
2:00am 16 20 mph 1020.7mb 64f
1:50am 17 23 mph 1020.7mb 64f
1:40am 21 24 mph 1020.7mb 64f
1:35am 20 26 mph 1020.7mb 64f
1:30am 20 23 mph 1020.3mb 64f
1:20am 14 16 mph 1020mb 64f
1:10am 16 18 mph 1020mb 63f
1:00am 14 20 mph 1020mb 64f
12:50am 11 18 mph 1020mb 64f
12:40am 21 26 mph 1020mb 65f
12:34am 18 26 mph 1020mb 65f
12:30am 20 26 mph 1020.3mb 65f
12:20am 23 26 mph 1020.3mb 65f
12:10am 25 29 mph 1020.7mb 65f
12:00am 25 29 mph 1020.7mb 65f
Fri 09/23 11:50pm 26 30 mph 1020.7mb 65f
11:40pm 23 28 mph 1020.3mb 65f
11:34pm 24
mph
1020.3mb 65f
11:30pm 24 28 mph 1020.3mb 65f
11:20pm 23 29 mph 1020.3mb 65f
11:10pm 25 29 mph 1020.7mb 65f
11:09pm 25 29 mph 1020.7mb 66f
11:00pm 25 29 mph 1020.3mb 66f
10:50pm 21 26 mph 1020.3mb 66f
10:40pm 23 25 mph 1020.3mb 66f
10:33pm 22 26 mph 1020mb 66f
10:30pm 21 24 mph 1020mb 66f
10:20pm 20 24 mph 1020mb 66f
10:10pm 20 25 mph 1019.6mb 66f
10:00pm 22 26 mph 1020mb 66f
9:50pm 21 24 mph 1019.6mb 66f
9:40pm 21 26 mph 1019.6mb 66f
9:33pm 21 28 mph 1019.6mb 66f
9:30pm 21 24 mph 1019.6mb 66f
9:20pm 20 23 mph 1019.6mb 66f
9:10pm 20 24 mph 1019.6mb 66f
9:00pm 20 25 mph 1019.6mb 66f
8:50pm 21 28 mph 1019.6mb 66f
8:40pm 21 26 mph 1019.3mb 66f
8:33pm 24 29 mph 1019.6mb 67f
8:30pm 24 28 mph 1019.6mb 67f
8:20pm 23 28 mph 1020mb 66f
8:10pm 23 29 mph 1019.6mb 66f
8:00pm 23 26 mph 1019.6mb 67f
7:50pm 21 25 mph 1019.6mb 67f
7:40pm 21 25 mph 1019.6mb 67f
7:32pm 23 26 mph 1019.6mb 66f
7:30pm 23 25 mph 1019.6mb 66f
7:20pm 20 25 mph 1019.3mb 66f
7:10pm 21 26 mph 1019.3mb 67f
7:00pm 22 24 mph 1019mb 67f
6:50pm 21 26 mph 1019mb 67f
6:40pm 23 25 mph 1019mb 67f
6:32pm 22 28 mph 1019mb 67f
6:30pm 21 24 mph 1019mb 67f
6:20pm 20 24 mph 1019mb 67f
6:10pm 22 28 mph 1018.6mb 67f
6:00pm 22 26 mph 1019mb 67f
5:50pm 23 26 mph 1019mb 67f
5:40pm 23 28 mph 1018.6mb 67f
5:31pm 24
mph
1018.6mb 67f
5:30pm 24 26 mph 1018.6mb 67f
5:20pm 22 29 mph 1018.3mb 68f
5:10pm 26 28 mph 1018.3mb 68f
5:00pm 25 30 mph 1018.3mb 68f
4:50pm 25 28 mph 1018.3mb 68f
4:40pm 25 29 mph 1018.3mb 68f
4:33pm 25 29 mph 1020.3mb 68f
4:31pm 25 28 mph 1018.3mb 68f
4:30pm 25 29 mph 1018.3mb 68f
4:20pm 25 29 mph 1018.3mb 68f
4:10pm 25 30 mph 1017.9mb 68f
4:00pm 26 29 mph 1018.3mb 68f
3:50pm 25 29 mph 1018.3mb 69f
3:40pm 25 28 mph 1017.9mb 69f
3:31pm 25
mph
1017.9mb 69f
3:30pm 25 29 mph 1017.9mb 69f
3:25pm 24 29 mph 1017.9mb 69f
3:20pm 26 29 mph 1017.9mb 69f
3:10pm 23 25 mph 1017.6mb 70f
3:00pm 22 25 mph 1017.6mb 70f
2:50pm 22 23 mph 1017.6mb 71f
2:40pm 21 23 mph 1017.6mb 71f
2:30pm 22 23 mph 1017.6mb 72f
2:20pm 17 20 mph 1017.3mb 73f
2:10pm 16 20 mph 1017.3mb 73f
2:00pm 16 17 mph 1017.6mb 73f
1:50pm 14 16 mph 1017.6mb 73f
1:40pm 15 16 mph 1017.6mb 73f
1:30pm 14 15 mph 1017.3mb 73f
1:20pm 13 14 mph 1017.6mb 74f
1:10pm 14 15 mph 1017.9mb 74f
1:00pm 10 11 mph 1017.9mb 74f
12:50pm 10 11 mph 1017.9mb 75f
12:40pm 7 8 mph 1017.9mb 75f
12:30pm 2 3 mph 1018.3mb 74f
12:29pm 2 9 mph 1018.3mb 74f
12:20pm 2 3 mph 1018.3mb 74f
12:10pm 2 3 mph 1018.3mb 74f
12:00pm 1 9 mph 1018.3mb 74f
11:50am 8 9 mph 1017.9mb 74f
11:40am 8 9 mph 1017.9mb 74f
11:30am 8
mph
1017.9mb 74f
11:29am 7 13 mph 1017.9mb 74f
11:20am 7 8 mph 1017.9mb 74f
11:10am 7 9 mph 1017.9mb 74f
11:00am 8 10 mph 1017.9mb 74f
10:50am 9 11 mph 1017.9mb 74f
10:40am 10 13 mph 1017.9mb 74f
10:30am 9 11 mph 1017.9mb 74f
10:28am 8 11 mph 1017.9mb 74f
10:20am 9 11 mph 1017.9mb 74f
10:10am 8 11 mph 1017.9mb 74f
10:00am 9 10 mph 1018.3mb 74f
9:50am 8 10 mph 1018.3mb 74f
9:40am 7 10 mph 1018.3mb 74f
9:30am 8 10 mph 1017.9mb 74f
9:28am 8 11 mph 1017.9mb 74f
9:20am 8 9 mph 1017.9mb 74f
9:10am 8 9 mph 1017.6mb 74f
9:00am 9 11 mph 1017.6mb 74f
8:50am 8 10 mph 1017.6mb 74f
8:40am 8 9 mph 1017.6mb 74f
8:30am 8 10 mph 1017.6mb 73f
8:28am 8 10 mph 1017.6mb 73f
8:20am 8 9 mph 1017.6mb 73f
8:10am 8
mph
1017.9mb 73f
8:00am 6 8 mph 1017.9mb 72f
7:50am 7 8 mph 1017.9mb 72f
7:40am 7 8 mph 1017.9mb 71f
7:30am 7 8 mph 1017.9mb 71f
7:27am 7 10 mph 1017.9mb 71f
7:20am 7 8 mph 1017.9mb 71f
7:10am 8 9 mph 1017.6mb 71f
7:00am 8 10 mph 1017.6mb 71f
6:50am 7 8 mph 1017.6mb 71f
6:40am 7 8 mph 1017.6mb 71f
6:30am 7 9 mph 1017.3mb 71f
6:27am 7 11 mph 1017.3mb 71f
6:20am 8 9 mph 1017.3mb 71f
6:10am 8 11 mph 1017.3mb 71f
6:00am 7 10 mph 1017.3mb 71f
5:50am 9 11 mph 1017.3mb 71f
5:40am 8 11 mph 1016.9mb 71f
5:30am 8 10 mph 1016.9mb 71f
5:26am 8 14 mph 1016.9mb 71f
5:20am 8 11 mph 1016.9mb 72f
5:10am 9 14 mph 1016.9mb 72f
5:00am 8 10 mph 1016.9mb 72f
4:50am 7 10 mph 1016.6mb 72f
4:40am 8 13 mph 1016.6mb 72f
4:30am 10 11 mph 1016.6mb 72f
4:26am 9 14 mph 1016.6mb 72f
4:20am 9 11 mph 1016.6mb 72f
4:10am 10 14 mph 1016.6mb 72f
4:00am 10 14 mph 1016.6mb 72f
3:50am 11 14 mph 1016.6mb 73f
3:40am 13 14 mph 1016.3mb 73f
3:30am 10 11 mph 1016.6mb 73f
3:26am 9 15 mph 1016.6mb 73f
3:20am 10 14 mph 1016.3mb 73f
3:10am 11 15 mph 1016.3mb 73f
3:00am 11 14 mph 1016.3mb 73f
2:50am 13 14 mph 1016.3mb 73f
2:40am 11 14 mph 1016.3mb 73f
2:30am 10 13 mph 1016.6mb 74f
2:25am 10 15 mph 1016.6mb 74f
2:20am 13 14 mph 1016.6mb 74f
2:10am 13 15 mph 1016.6mb 74f
2:00am 13 15 mph 1016.6mb 74f
1:50am 11 14 mph 1016.6mb 74f
1:40am 11 15 mph 1016.9mb 74f
1:30am 13 16 mph 1016.6mb 74f
1:25am 13 16 mph 1016.6mb 74f
1:20am 13 16 mph 1016.9mb 74f
1:10am 11 15 mph 1016.9mb 74f
1:00am 13 14 mph 1016.9mb 74f
12:50am 11 16 mph 1016.9mb 74f
12:40am 13 15 mph 1016.6mb 74f
12:30am 11 14 mph 1016.9mb 74f
12:24am 10 14 mph 1016.9mb 75f
12:20am 10 13 mph 1016.9mb 75f
12:10am 11 14 mph 1016.9mb 74f
12:00am 11 14 mph 1016.9mb 74f
Thu 09/22 11:50pm 13 14 mph 1016.9mb 74f
11:40pm 9 11 mph 1016.9mb 74f
11:30pm 9 11 mph 1016.9mb 73f
11:24pm 9 13 mph 1016.9mb 73f
11:20pm 9 11 mph 1016.9mb 73f
11:10pm 9 11 mph 1016.9mb 73f
11:00pm 10 13 mph 1016.9mb 73f
10:50pm 9 11 mph 1017.3mb 73f
10:40pm 9 10 mph 1017.3mb 73f
10:30pm 9 10 mph 1017.3mb 73f
10:24pm 9 10 mph 1017.3mb 73f
10:20pm 9 10 mph 1017.3mb 73f
10:10pm 9 10 mph 1017.3mb 73f
10:00pm 9 10 mph 1017.3mb 73f
9:50pm 9 10 mph 1017.3mb 73f
9:40pm 8 9 mph 1017.3mb 73f
9:30pm 8 9 mph 1017.3mb 73f
9:23pm 8 9 mph 1017.3mb 73f
9:20pm 8 9 mph 1017.3mb 73f
9:10pm 6 7 mph 1017.3mb 73f
9:00pm 6 8 mph 1017.6mb 74f
8:50pm 8
mph
1017.3mb 73f
8:40pm 7 8 mph 1017.3mb 73f
8:30pm 7 8 mph 1017.3mb 73f
8:23pm 6 9 mph 1017.3mb 73f
8:20pm 6 7 mph 1017.3mb 73f
8:10pm 7 9 mph 1017.6mb 73f
8:00pm 8 9 mph 1017.6mb 73f
7:50pm 6 7 mph 1017.3mb 73f
7:40pm 7 8 mph 1017.3mb 73f
7:30pm 6 7 mph 1017.6mb 73f
7:22pm 3 6 mph 1017.6mb 74f
7:20pm 3 5 mph 1017.6mb 74f
7:10pm 3 5 mph 1017.6mb 74f
7:00pm 5 6 mph 1017.6mb 74f
6:50pm 3 5 mph 1017.6mb 75f
6:40pm 3 5 mph 1017.6mb 75f
6:30pm 5 6 mph 1017.6mb 75f
6:22pm 5 6 mph 1017.6mb 74f
6:20pm 5 6 mph 1017.6mb 74f
6:10pm 5 6 mph 1017.9mb 75f
6:00pm 3 5 mph 1017.9mb 76f
5:50pm 2 3 mph 1017.9mb 77f
5:40pm 1 2 mph 1017.9mb 77f
5:30pm 2
mph
1017.9mb 78f
5:22pm  -  1 mph 1017.9mb 78f
5:20pm  -  1 mph 1017.9mb 78f
5:10pm  -  1 mph 1018.3mb 79f
5:00pm  -  1 mph 1018.3mb 83f
4:50pm  -  1 mph 1018.3mb 85f
4:40pm  -  1 mph 1018.3mb 83f
4:30pm  -  1 mph 1018.3mb 82f
4:21pm  -  5 mph 1018.3mb 78f
4:20pm  -  1 mph 1018.3mb 78f
4:10pm  -  1 mph 1018.3mb 79f
4:00pm 1 2 mph 1018.6mb 80f
3:50pm 1 3 mph 1018.6mb 78f
3:40pm 2
mph
1018.6mb 79f
3:30pm 2 5 mph 1018.6mb 78f
3:21pm 3 7 mph 1018.6mb 78f
3:20pm 3 5 mph 1018.6mb 78f
3:10pm 3 5 mph 1018.6mb 77f
3:00pm 5
mph
1018.6mb 77f
2:50pm 3 7 mph 1018.6mb 77f
2:40pm 6 7 mph 1018.6mb 77f
2:30pm 6 7 mph 1018.6mb 77f
2:20pm 5 9 mph 1018.6mb 77f
2:10pm 9
mph
1019mb 77f
2:00pm 7 8 mph 1018.6mb 77f
1:50pm 6 7 mph 1019mb 77f
1:40pm 5 6 mph 1019mb 77f
1:30pm 3 5 mph 1019mb 78f
1:20pm 5 9 mph 1019.3mb 78f
1:10pm 5 7 mph 1019.6mb 78f
1:00pm 7
mph
1019.6mb 78f
12:50pm 5 6 mph 1019.6mb 78f
12:40pm 6 8 mph 1020mb 77f
12:30pm 8 9 mph 1020mb 77f
12:20pm 8
mph
1020mb 78f
12:10pm 7 8 mph 1020.3mb 78f
12:00pm 7
mph
1020mb 78f
11:50am 7 8 mph 1020.3mb 77f
11:40am 5 6 mph 1020.3mb 78f
11:30am 3 6 mph 1020.3mb 78f
11:20am 6 7 mph 1020.3mb 77f
11:10am 5 7 mph 1020.7mb 77f
11:00am 7 8 mph 1020.7mb 77f
10:50am 8 10 mph 1020.3mb 77f
10:40am 8 9 mph 1020.3mb 77f
10:30am 8 9 mph 1020.3mb 76f
10:20am 8 10 mph 1020.3mb 76f
10:10am 7 11 mph 1020.3mb 76f
10:00am 11 13 mph 1020mb 75f
9:50am 13 15 mph 1020mb 75f
9:40am 9 14 mph 1020mb 75f
9:30am 10 13 mph 1020mb 74f
9:20am 10 13 mph 1020.3mb 74f
9:10am 10 11 mph 1020.3mb 73f
9:00am 9 11 mph 1020.3mb 73f
8:50am 7 9 mph 1020.3mb 72f
8:40am 6 8 mph 1020.3mb 71f
8:30am 5 6 mph 1020.7mb 70f
8:20am 6 7 mph 1020.7mb 69f
8:10am 6 7 mph 1020.7mb 69f
8:00am 5 8 mph 1020.7mb 68f
7:50am 6 8 mph 1021mb 67f
7:40am 5 6 mph 1021mb 67f
7:30am 3 7 mph 1021mb 67f
7:20am 5 6 mph 1021mb 67f
7:10am 2 5 mph 1021.3mb 67f
7:00am 5 7 mph 1021mb 65f
6:50am 3
mph
1021mb 65f
6:40am 3 6 mph 1021mb 65f
6:30am 5 7 mph 1021mb 65f
6:20am 5 7 mph 1021mb 65f
6:10am 2 5 mph 1021mb 65f
6:00am 2
mph
1021mb 64f
5:50am 2 5 mph 1021mb 64f
5:40am 5 6 mph 1020.7mb 64f
5:30am 2 3 mph 1020.7mb 64f
5:20am 3 5 mph 1021mb 64f
5:10am 3 5 mph 1021mb 64f
5:00am 3 5 mph 1020.7mb 64f
4:50am 5
mph
1020.7mb 64f
4:40am 2 3 mph 1020.7mb 64f
4:30am 3 5 mph 1020.7mb 64f
4:20am 3 5 mph 1020.7mb 64f
4:10am 3 5 mph 1020.3mb 65f
4:00am 2 3 mph 1020.3mb 65f
3:50am 2 5 mph 1020.3mb 65f
3:40am 3 5 mph 1020.3mb 66f
3:30am 2 3 mph 1020.3mb 66f
3:20am  -  2 mph 1020.3mb 65f
3:10am  -  1 mph 1020.7mb 65f
3:00am  -  1 mph 1020.7mb 65f
2:50am  -  2 mph 1020.7mb 65f
2:40am 2
mph
1020.7mb 65f
2:30am 1 5 mph 1020.7mb 66f
2:20am 3
mph
1020.7mb 66f
2:10am 3
mph
1020.7mb 66f
2:00am 2 3 mph 1020.7mb 66f
1:50am 2 3 mph 1020.7mb 66f
1:40am 2 3 mph 1020.7mb 65f
1:30am 2 3 mph 1020.7mb 66f
1:20am 2 3 mph 1020.7mb 66f
1:10am 2 5 mph 1020.7mb 66f
1:00am 1 3 mph 1021mb 66f
12:50am  -  3 mph 1020.7mb 67f
12:40am 3 5 mph 1021mb 67f
12:30am 2 5 mph 1021mb 68f
12:20am 5
mph
1021mb 68f
12:10am  -  2 mph 1021.3mb 68f
12:00am 1 3 mph 1021mb 67f
Wed 09/21 11:50pm 1 5 mph 1021mb 67f
11:40pm 3 7 mph 1021mb 67f
11:30pm 6 7 mph 1021mb 67f
11:20pm 5 6 mph 1020.7mb 67f
11:10pm 5 7 mph 1020.7mb 67f
11:00pm 7
mph
1020.7mb 67f
10:50pm 5
mph
1020.7mb 67f
10:40pm 2 6 mph 1020.3mb 66f
10:30pm 5 7 mph 1020.3mb 66f
10:20pm 6
mph
1020.3mb 66f
10:10pm 3 6 mph 1020.7mb 66f
10:00pm 5 6 mph 1020.7mb 67f
9:50pm 3 7 mph 1020.7mb 67f
9:40pm 6 7 mph 1020.7mb 66f
9:30pm 5
mph
1020.7mb 67f
9:20pm 3 5 mph 1021mb 67f
9:10pm 5
mph
1021mb 68f
9:00pm 5
mph
1021mb 69f
8:50pm 3 5 mph 1021mb 69f
8:40pm 5 7 mph 1021.3mb 69f
8:30pm 6 7 mph 1021mb 68f
8:20pm 7 8 mph 1021.3mb 68f
8:10pm 5 6 mph 1021.3mb 68f
8:00pm 5
mph
1021.3mb 69f
7:50pm 3
mph
1021.3mb 70f
7:40pm 2 3 mph 1021.7mb 70f
7:30pm 2 3 mph 1021.3mb 71f
7:20pm 2 3 mph 1021.3mb 71f
7:10pm 3
mph
1021.3mb 71f
7:00pm 1 2 mph 1021.3mb 71f
6:50pm 3 6 mph 1021.3mb 71f
6:40pm 5
mph
1021.3mb 72f
6:30pm 3 6 mph 1021.3mb 72f
6:20pm 5 7 mph 1021.3mb 72f
6:10pm 5 6 mph 1021.3mb 73f
6:00pm 7 8 mph 1021.3mb 74f
5:50pm 8 10 mph 1021.3mb 74f
5:40pm 8 9 mph 1021.3mb 74f
5:30pm 7 10 mph 1021.3mb 74f
5:20pm 8 10 mph 1021.7mb 75f
5:10pm 9 10 mph 1022mb 74f
5:00pm 9 10 mph 1022mb 74f
4:50pm 5 8 mph 1022mb 75f
4:40pm 6 8 mph 1022mb 74f
4:30pm 6 9 mph 1022mb 74f
4:20pm 6 8 mph 1022mb 75f
4:10pm 3 7 mph 1021.3mb 74f
4:00pm 2 6 mph 1022mb 75f
3:50pm 2 8 mph 1022mb 75f
3:40pm 8 9 mph 1022.4mb 74f
3:30pm 9 10 mph 1022mb 74f
3:20pm 8 9 mph 1022.4mb 74f
3:10pm 9 10 mph 1022.4mb 74f
3:00pm 8 11 mph 1022.4mb 73f
2:50pm 10 13 mph 1022.4mb 73f
2:40pm 11 13 mph 1022.7mb 73f
2:30pm 11 13 mph 1023mb 73f
2:20pm 11 13 mph 1023mb 73f
2:10pm 10 11 mph 1023mb 73f
2:00pm 9 10 mph 1023mb 73f
1:50pm 10 11 mph 1023.4mb 73f
1:40pm 11 13 mph 1023.4mb 73f
1:30pm 10 13 mph 1023.4mb 73f
1:20pm 11 13 mph 1023.7mb 73f
1:10pm 10 11 mph 1023.7mb 73f
1:00pm 10 11 mph 1023.7mb 73f
12:50pm 10 13 mph 1023.4mb 73f
12:40pm 11
mph
1023.4mb 73f
12:30pm 10 11 mph 1023.4mb 73f
12:20pm 10 13 mph 1023.4mb 73f
12:10pm 11 13 mph 1023.4mb 73f
12:00pm 11 13 mph 1023.4mb 73f
11:50am 10 11 mph 1023.4mb 73f
11:40am 9 10 mph 1023.4mb 74f
11:30am 2 9 mph 1023.7mb 76f
11:20am 8 9 mph 1023.4mb 76f
11:10am 5 8 mph 1023.4mb 76f
11:00am 8 9 mph 1023.4mb 75f
10:50am 7 9 mph 1023.7mb 75f
10:40am 6 8 mph 1024mb 75f
10:30am 7 8 mph 1024mb 74f
10:20am 3 18 mph 1024mb 74f
10:10am 7 11 mph 1024mb 73f
10:00am 10 11 mph 1023.7mb 73f
9:50am 9 13 mph 1023.7mb 72f
9:40am 10 14 mph 1023.7mb 72f
9:30am 10 14 mph 1023.7mb 72f
9:20am 10 16 mph 1023.4mb 71f
9:10am 13 17 mph 1023.4mb 71f
9:00am 16 18 mph 1023mb 70f
8:50am 14 17 mph 1023.4mb 70f
8:40am 14 18 mph 1023.4mb 69f
8:30am 16 17 mph 1023.4mb 69f
8:20am 15 17 mph 1023.4mb 68f
8:10am 14 17 mph 1023.4mb 68f
8:00am 14 17 mph 1023mb 67f
7:50am 15 17 mph 1023mb 66f
7:40am 15 16 mph 1023.4mb 66f
7:30am 13 15 mph 1023mb 66f
7:20am 13 15 mph 1023mb 66f
7:10am 13 15 mph 1023mb 65f
7:00am 14 16 mph 1023mb 65f
6:50am 14 15 mph 1023mb 64f
6:40am 13 16 mph 1023.4mb 64f
6:30am 11 13 mph 1023.4mb 64f
6:20am 10 15 mph 1023mb 64f
6:10am 13 15 mph 1022.7mb 64f
6:00am 11 15 mph 1022.7mb 64f
5:50am 11 13 mph 1022.7mb 64f
5:40am  -  mph 1022.7mb 64f
5:30am  -  mph 1022.4mb 64f